| time (UTC) | temp F | wind direction | speed MPH | gust MPH | rain 1hr in | rain 24hr in | rain mn in | humidity % | barometer mb |
| 20260503032604 | 41 | 296 | 1.0 | 2.0 | 0.00 | 0.00 | 0.00 | 67 | 1016.6 |
| 20260503032104 | 41 | 296 | 0.0 | 2.0 | 0.00 | 0.00 | 0.00 | 67 | 1016.6 |
| 20260503030604 | 41 | 296 | 0.0 | 2.0 | 0.00 | 0.00 | 0.00 | 66 | 1016.6 |
| 20260503025603 | 41 | 296 | 0.0 | 1.0 | 0.00 | 0.00 | 0.00 | 66 | 1016.6 |
| 20260503025104 | 41 | 296 | 0.0 | 1.0 | 0.00 | 0.00 | 0.00 | 66 | 1016.7 |
| 20260503024104 | 41 | 296 | 0.0 | 1.0 | 0.00 | 0.00 | 0.00 | 64 | 1016.8 |
| 20260503023604 | 42 | 296 | 0.0 | 0.0 | 0.00 | 0.00 | 0.00 | 63 | 1016.7 |
| 20260503023105 | 42 | 296 | 0.0 | 1.0 | 0.00 | 0.00 | 0.00 | 63 | 1016.7 |
| 20260503022104 | 43 | 296 | 0.0 | 0.0 | 0.00 | 0.00 | 0.00 | 61 | 1016.7 |
| 20260503021604 | 43 | 296 | 0.0 | 0.0 | 0.00 | 0.00 | 0.00 | 60 | 1016.6 |
| 20260503021104 | 44 | 296 | 0.0 | 1.0 | 0.00 | 0.00 | 0.00 | 59 | 1016.5 |
| 20260503020604 | 44 | 296 | 0.0 | 0.0 | 0.00 | 0.00 | 0.00 | 58 | 1016.5 |
| 20260503020105 | 44 | 296 | 0.0 | 0.0 | 0.00 | 0.00 | 0.00 | 58 | 1016.4 |
| 20260503015604 | 44 | 296 | 0.0 | 1.0 | 0.00 | 0.00 | 0.00 | 57 | 1016.4 |
| 20260503015104 | 45 | 296 | 0.0 | 1.0 | 0.00 | 0.00 | 0.00 | 57 | 1016.4 |
| 20260503014604 | 45 | 296 | 0.0 | 2.0 | 0.00 | 0.00 | 0.00 | 56 | 1016.4 |
| 20260503014104 | 45 | 314 | 0.0 | 2.0 | 0.00 | 0.00 | 0.00 | 56 | 1016.3 |
| 20260503013604 | 45 | 314 | 0.0 | 2.0 | 0.00 | 0.00 | 0.00 | 55 | 1016.3 |
| 20260503012604 | 45 | 315 | 0.0 | 1.0 | 0.00 | 0.00 | 0.00 | 54 | 1016.2 |
| 20260503012104 | 45 | 315 | 0.0 | 1.0 | 0.00 | 0.00 | 0.00 | 55 | 1016.2 |
| 20260503011105 | 46 | 315 | 0.0 | 1.0 | 0.00 | 0.00 | 0.00 | 54 | 1016.2 |
| 20260503010604 | 46 | 315 | 0.0 | 1.0 | 0.00 | 0.00 | 0.00 | 53 | 1016.2 |
| 20260503010105 | 46 | 315 | 0.0 | 1.0 | 0.00 | 0.00 | 0.00 | 52 | 1016.2 |
| 20260503005604 | 46 | 315 | 0.0 | 1.0 | 0.00 | 0.00 | 0.00 | 52 | 1016.1 |
| 20260503005105 | 46 | 315 | 0.0 | 1.0 | 0.00 | 0.00 | 0.00 | 51 | 1016.1 |
| 20260503004604 | 47 | 315 | 0.0 | 1.0 | 0.00 | 0.00 | 0.00 | 50 | 1016.1 |
| 20260503004104 | 47 | 315 | 0.0 | 1.0 | 0.00 | 0.00 | 0.00 | 50 | 1016.0 |
| 20260503003104 | 47 | 315 | 0.0 | 2.0 | 0.00 | 0.00 | 0.00 | 50 | 1015.9 |
| 20260503002604 | 47 | 315 | 0.0 | 2.0 | 0.00 | 0.00 | 0.00 | 50 | 1015.9 |
| 20260503001604 | 47 | 315 | 1.0 | 3.0 | 0.00 | 0.00 | 0.00 | 49 | 1015.9 |
| 20260503001105 | 47 | 315 | 2.0 | 3.0 | 0.00 | 0.00 | 0.00 | 49 | 1015.9 |
| 20260503000604 | 47 | 294 | 3.0 | 5.0 | 0.00 | 0.00 | 0.00 | 49 | 1015.9 |
| 20260503000105 | 47 | 324 | 2.0 | 3.0 | 0.00 | 0.00 | 0.00 | 49 | 1015.9 |
| 20260502235604 | 47 | 306 | 2.0 | 3.0 | 0.00 | 0.00 | 0.00 | 49 | 1015.9 |
| 20260502234604 | 47 | 308 | 2.0 | 3.0 | 0.00 | 0.00 | 0.00 | 49 | 1016.0 |
| 20260502234104 | 47 | 288 | 3.0 | 8.0 | 0.00 | 0.00 | 0.00 | 48 | 1015.9 |
| 20260502233604 | 48 | 312 | 2.0 | 5.0 | 0.00 | 0.00 | 0.00 | 48 | 1015.9 |
| 20260502233104 | 47 | 257 | 2.0 | 6.0 | 0.00 | 0.00 | 0.00 | 48 | 1016.0 |
| 20260502231604 | 47 | 334 | 3.0 | 6.0 | 0.00 | 0.00 | 0.00 | 48 | 1016.1 |
| 20260502231104 | 47 | 288 | 2.0 | 7.0 | 0.00 | 0.00 | 0.00 | 47 | 1016.1 |
| 20260502230604 | 48 | 297 | 3.0 | 9.0 | 0.00 | 0.00 | 0.00 | 47 | 1016.1 |
| 20260502230105 | 48 | 311 | 3.0 | 7.0 | 0.00 | 0.00 | 0.00 | 46 | 1016.2 |
| 20260502225605 | 48 | 331 | 4.0 | 9.0 | 0.00 | 0.00 | 0.00 | 46 | 1016.2 |
| 20260502225104 | 48 | 312 | 4.0 | 9.0 | 0.00 | 0.00 | 0.00 | 47 | 1016.2 |
| 20260502224604 | 47 | 342 | 3.0 | 6.0 | 0.00 | 0.00 | 0.00 | 48 | 1016.2 |
| 20260502224104 | 47 | 264 | 5.0 | 9.0 | 0.00 | 0.00 | 0.00 | 48 | 1016.2 |
| 20260502223604 | 47 | 340 | 3.0 | 5.0 | 0.00 | 0.00 | 0.00 | 46 | 1016.3 |
| 20260502223104 | 47 | 325 | 3.0 | 6.0 | 0.00 | 0.00 | 0.00 | 46 | 1016.3 |
| 20260502222604 | 47 | 316 | 3.0 | 8.0 | 0.00 | 0.00 | 0.00 | 45 | 1016.2 |
| 20260502222104 | 47 | 330 | 3.0 | 9.0 | 0.00 | 0.00 | 0.00 | 45 | 1016.4 |
| 20260502221604 | 48 | 337 | 2.0 | 5.0 | 0.00 | 0.00 | 0.00 | 45 | 1016.4 |
| 20260502221105 | 48 | 343 | 3.0 | 8.0 | 0.00 | 0.00 | 0.00 | 45 | 1016.4 |
| 20260502220604 | 48 | 317 | 5.0 | 9.0 | 0.00 | 0.00 | 0.00 | 46 | 1016.4 |
| 20260502215604 | 47 | 325 | 4.0 | 9.0 | 0.00 | 0.00 | 0.00 | 46 | 1016.4 |
| 20260502215104 | 47 | 9 | 3.0 | 8.0 | 0.00 | 0.00 | 0.00 | 45 | 1016.4 |
| 20260502214604 | 47 | 341 | 6.0 | 12.0 | 0.00 | 0.00 | 0.00 | 44 | 1016.4 |
| 20260502214105 | 47 | 325 | 4.0 | 8.0 | 0.00 | 0.00 | 0.00 | 46 | 1016.4 |
| 20260502213605 | 47 | 316 | 4.0 | 7.0 | 0.00 | 0.00 | 0.00 | 45 | 1016.4 |
| 20260502213104 | 47 | 306 | 5.0 | 9.0 | 0.00 | 0.00 | 0.00 | 46 | 1016.4 |
| 20260502212104 | 47 | 333 | 4.0 | 10.0 | 0.00 | 0.00 | 0.00 | 46 | 1016.4 |
| 20260502211605 | 47 | 322 | 5.0 | 9.0 | 0.00 | 0.00 | 0.00 | 46 | 1016.5 |
| 20260502211104 | 47 | 287 | 3.0 | 10.0 | 0.00 | 0.00 | 0.00 | 46 | 1016.6 |
| 20260502210603 | 47 | 352 | 6.0 | 10.0 | 0.00 | 0.00 | 0.00 | 45 | 1016.5 |
| 20260502205104 | 47 | 330 | 3.0 | 9.0 | 0.00 | 0.00 | 0.00 | 46 | 1016.6 |
| 20260502204604 | 47 | 278 | 3.0 | 9.0 | 0.00 | 0.00 | 0.00 | 47 | 1016.6 |
| 20260502204104 | 47 | 315 | 5.0 | 12.0 | 0.00 | 0.00 | 0.00 | 45 | 1016.7 |
| 20260502203604 | 47 | 341 | 5.0 | 12.0 | 0.00 | 0.00 | 0.00 | 46 | 1016.7 |
| 20260502203104 | 47 | 326 | 7.0 | 14.0 | 0.00 | 0.00 | 0.00 | 46 | 1016.8 |
| 20260502202604 | 47 | 290 | 6.0 | 9.0 | 0.00 | 0.00 | 0.00 | 46 | 1016.7 |
| 20260502201604 | 47 | 339 | 5.0 | 12.0 | 0.00 | 0.00 | 0.00 | 45 | 1016.9 |
| 20260502201103 | 47 | 304 | 6.0 | 13.0 | 0.00 | 0.00 | 0.00 | 45 | 1017.0 |
| 20260502200604 | 47 | 315 | 9.0 | 12.0 | 0.00 | 0.00 | 0.00 | 46 | 1016.9 |
| 20260502200105 | 48 | 340 | 5.0 | 10.0 | 0.00 | 0.00 | 0.00 | 45 | 1017.0 |
| 20260502195604 | 47 | 275 | 3.0 | 8.0 | 0.00 | 0.00 | 0.00 | 49 | 1016.9 |
| 20260502194604 | 47 | 328 | 5.0 | 12.0 | 0.00 | 0.00 | 0.00 | 47 | 1017.1 |
| 20260502194105 | 46 | 302 | 6.0 | 12.0 | 0.00 | 0.00 | 0.00 | 46 | 1017.2 |
| 20260502193604 | 47 | 278 | 7.0 | 12.0 | 0.00 | 0.00 | 0.00 | 46 | 1017.2 |
| 20260502193104 | 47 | 315 | 5.0 | 12.0 | 0.00 | 0.00 | 0.00 | 45 | 1017.1 |
| 20260502192604 | 47 | 310 | 3.0 | 9.0 | 0.00 | 0.00 | 0.00 | 46 | 1017.2 |
| 20260502191604 | 47 | 313 | 3.0 | 12.0 | 0.00 | 0.00 | 0.00 | 45 | 1017.2 |
| 20260502190604 | 47 | 297 | 4.0 | 10.0 | 0.00 | 0.00 | 0.00 | 49 | 1017.4 |
| 20260502190105 | 46 | 329 | 4.0 | 9.0 | 0.00 | 0.00 | 0.00 | 48 | 1017.4 |
| 20260502185604 | 46 | 338 | 5.0 | 12.0 | 0.00 | 0.00 | 0.00 | 46 | 1017.5 |
| 20260502185104 | 46 | 319 | 5.0 | 10.0 | 0.00 | 0.00 | 0.00 | 49 | 1017.5 |
| 20260502184604 | 46 | 329 | 3.0 | 12.0 | 0.00 | 0.00 | 0.00 | 48 | 1017.5 |
| 20260502184104 | 46 | 349 | 7.0 | 12.0 | 0.00 | 0.00 | 0.00 | 48 | 1017.5 |
| 20260502183604 | 46 | 306 | 5.0 | 10.0 | 0.00 | 0.00 | 0.00 | 47 | 1017.5 |
| 20260502183104 | 46 | 329 | 5.0 | 14.0 | 0.00 | 0.00 | 0.00 | 46 | 1017.4 |
| 20260502182104 | 46 | 329 | 8.0 | 13.0 | 0.00 | 0.00 | 0.00 | 48 | 1017.5 |
| 20260502181604 | 46 | 299 | 4.0 | 13.0 | 0.00 | 0.00 | 0.00 | 48 | 1017.5 |
| 20260502181104 | 46 | 308 | 10.0 | 15.0 | 0.00 | 0.00 | 0.00 | 48 | 1017.6 |
| 20260502170105 | 45 | 311 | 7.0 | 12.0 | 0.00 | 0.00 | 0.00 | 49 | 1018.2 |
| 20260502164104 | 44 | 314 | 4.0 | 9.0 | 0.00 | 0.00 | 0.00 | 53 | 1018.4 |
| 20260502163605 | 44 | 303 | 2.0 | 7.0 | 0.00 | 0.00 | 0.00 | 51 | 1018.5 |
| 20260502163104 | 44 | 334 | 6.0 | 13.0 | 0.00 | 0.00 | 0.00 | 51 | 1018.5 |
| 20260502162104 | 44 | 345 | 6.0 | 12.0 | 0.00 | 0.00 | 0.00 | 52 | 1018.6 |
| 20260502161604 | 44 | 304 | 7.0 | 12.0 | 0.00 | 0.00 | 0.00 | 51 | 1018.5 |
| 20260502161104 | 44 | 19 | 7.0 | 12.0 | 0.00 | 0.00 | 0.00 | 51 | 1018.6 |
| 20260502160604 | 44 | 330 | 3.0 | 9.0 | 0.00 | 0.00 | 0.00 | 52 | 1018.5 |
| 20260502160106 | 44 | 13 | 3.0 | 8.0 | 0.00 | 0.00 | 0.00 | 54 | 1018.6 |
| 20260502152103 | 43 | 320 | 5.0 | 10.0 | 0.00 | 0.00 | 0.00 | 58 | 1018.2 |
| 20260502151604 | 43 | 322 | 5.0 | 7.0 | 0.00 | 0.00 | 0.00 | 59 | 1018.1 |
| 20260502151105 | 42 | 288 | 6.0 | 10.0 | 0.00 | 0.00 | 0.00 | 58 | 1018.2 |
| 20260502150604 | 42 | 351 | 5.0 | 9.0 | 0.00 | 0.00 | 0.00 | 59 | 1018.1 |
| 20260502140105 | 42 | 8 | 3.0 | 12.0 | 0.00 | 0.00 | 0.00 | 65 | 1017.9 |
| 20260502130604 | 40 | 347 | 5.0 | 10.0 | 0.00 | 0.00 | 0.00 | 70 | 1018.1 |
| 20260502130105 | 40 | 356 | 6.0 | 12.0 | 0.00 | 0.00 | 0.00 | 70 | 1018.2 |
| 20260502123603 | 39 | 340 | 5.0 | 9.0 | 0.00 | 0.00 | 0.00 | 73 | 1018.1 |
| 20260502123104 | 39 | 340 | 6.0 | 10.0 | 0.00 | 0.00 | 0.00 | 73 | 1018.1 |
| 20260502122604 | 39 | 357 | 6.0 | 9.0 | 0.00 | 0.00 | 0.00 | 73 | 1018.1 |
| 20260502122104 | 38 | 23 | 2.0 | 8.0 | 0.00 | 0.00 | 0.00 | 74 | 1018.1 |
| 20260502121603 | 38 | 2 | 4.0 | 9.0 | 0.00 | 0.00 | 0.00 | 74 | 1018.0 |
| 20260502121103 | 38 | 8 | 4.0 | 9.0 | 0.00 | 0.00 | 0.00 | 75 | 1018.1 |
| 20260502120105 | 37 | 354 | 5.0 | 8.0 | 0.00 | 0.00 | 0.00 | 78 | 1017.9 |
| 20260502115604 | 37 | 343 | 4.0 | 9.0 | 0.00 | 0.00 | 0.00 | 78 | 1017.9 |
| 20260502115104 | 36 | 331 | 2.0 | 3.0 | 0.00 | 0.00 | 0.00 | 79 | 1017.9 |
| 20260502114604 | 36 | 346 | 2.0 | 3.0 | 0.00 | 0.00 | 0.00 | 79 | 1017.8 |
| 20260502114104 | 36 | 343 | 3.0 | 5.0 | 0.00 | 0.00 | 0.00 | 80 | 1017.8 |
| 20260502113604 | 35 | 333 | 2.0 | 3.0 | 0.00 | 0.00 | 0.00 | 80 | 1017.7 |
| 20260502113103 | 35 | 355 | 2.0 | 3.0 | 0.00 | 0.00 | 0.00 | 80 | 1017.7 |
| 20260502112604 | 35 | 322 | 1.0 | 3.0 | 0.00 | 0.00 | 0.00 | 80 | 1017.7 |
| 20260502112104 | 35 | 322 | 2.0 | 3.0 | 0.00 | 0.00 | 0.00 | 80 | 1017.7 |
| 20260502111103 | 35 | 322 | 2.0 | 3.0 | 0.00 | 0.00 | 0.00 | 80 | 1017.6 |
| 20260502110604 | 34 | 324 | 2.0 | 3.0 | 0.00 | 0.00 | 0.00 | 80 | 1017.5 |
| 20260502105604 | 34 | 331 | 1.0 | 3.0 | 0.00 | 0.00 | 0.00 | 80 | 1017.5 |
| 20260502105105 | 34 | 323 | 1.0 | 3.0 | 0.00 | 0.00 | 0.00 | 80 | 1017.4 |
| 20260502104604 | 35 | 319 | 2.0 | 3.0 | 0.00 | 0.00 | 0.00 | 79 | 1017.3 |
| 20260502104104 | 35 | 318 | 2.0 | 3.0 | 0.00 | 0.00 | 0.00 | 80 | 1017.3 |
| 20260502103604 | 35 | 313 | 3.0 | 3.0 | 0.00 | 0.00 | 0.00 | 80 | 1017.3 |
| 20260502103104 | 35 | 319 | 2.0 | 3.0 | 0.00 | 0.01 | 0.00 | 79 | 1017.2 |
| 20260502102603 | 35 | 318 | 2.0 | 3.0 | 0.00 | 0.01 | 0.00 | 79 | 1017.3 |
| 20260502102104 | 35 | 287 | 2.0 | 7.0 | 0.00 | 0.01 | 0.00 | 79 | 1017.3 |
| 20260502101104 | 35 | 331 | 3.0 | 6.0 | 0.00 | 0.01 | 0.00 | 79 | 1017.3 |
| 20260502100604 | 35 | 325 | 2.0 | 3.0 | 0.00 | 0.02 | 0.00 | 78 | 1017.2 |
| 20260502100105 | 35 | 326 | 2.0 | 5.0 | 0.00 | 0.02 | 0.00 | 78 | 1017.2 |
| 20260502090604 | 38 | 324 | 2.0 | 6.0 | 0.00 | 0.03 | 0.00 | 74 | 1017.0 |
| 20260502090105 | 38 | 325 | 3.0 | 7.0 | 0.00 | 0.03 | 0.00 | 74 | 1016.9 |
| 20260502071104 | 41 | 327 | 3.0 | 7.0 | 0.00 | 0.05 | 0.00 | 69 | 1016.5 |
| 20260502070604 | 41 | 346 | 3.0 | 7.0 | 0.00 | 0.05 | 0.00 | 69 | 1016.6 |
| 20260502070105 | 41 | 312 | 4.0 | 10.0 | 0.00 | 0.05 | 0.00 | 69 | 1016.6 |
| 20260502065605 | 41 | 340 | 4.0 | 8.0 | 0.00 | 0.06 | 0.00 | 69 | 1016.6 |
| 20260502065104 | 41 | 349 | 4.0 | 8.0 | 0.00 | 0.06 | 0.00 | 70 | 1016.6 |
| 20260502064604 | 41 | 308 | 3.0 | 7.0 | 0.00 | 0.07 | 0.00 | 70 | 1016.7 |
| 20260502064103 | 41 | 321 | 3.0 | 6.0 | 0.00 | 0.08 | 0.00 | 70 | 1016.6 |
| 20260502063605 | 41 | 327 | 5.0 | 12.0 | 0.00 | 0.08 | 0.00 | 71 | 1016.7 |
| 20260502062604 | 41 | 347 | 5.0 | 10.0 | 0.00 | 0.09 | 0.00 | 73 | 1016.7 |
| 20260502062104 | 41 | 326 | 3.0 | 9.0 | 0.00 | 0.10 | 0.00 | 74 | 1016.7 |
| 20260502061604 | 41 | 321 | 3.0 | 6.0 | 0.00 | 0.11 | 0.00 | 75 | 1016.7 |
| 20260502061104 | 41 | 344 | 2.0 | 5.0 | 0.00 | 0.11 | 0.00 | 75 | 1016.8 |
| 20260502060604 | 41 | 293 | 2.0 | 5.0 | 0.00 | 0.11 | 0.00 | 75 | 1016.8 |
| 20260502060105 | 41 | 318 | 2.0 | 3.0 | 0.00 | 0.11 | 0.00 | 75 | 1016.8 |
| 20260502055604 | 41 | 300 | 1.0 | 3.0 | 0.00 | 0.11 | 0.00 | 74 | 1016.8 |
| 20260502054603 | 41 | 286 | 2.0 | 3.0 | 0.00 | 0.12 | 0.00 | 74 | 1016.8 |
| 20260502054104 | 41 | 290 | 3.0 | 3.0 | 0.00 | 0.12 | 0.00 | 73 | 1016.9 |
| 20260502053104 | 41 | 322 | 2.0 | 5.0 | 0.00 | 0.14 | 0.00 | 73 | 1016.9 |
| 20260502052604 | 41 | 312 | 3.0 | 7.0 | 0.00 | 0.14 | 0.00 | 73 | 1016.9 |
| 20260502052104 | 41 | 325 | 3.0 | 5.0 | 0.00 | 0.14 | 0.00 | 74 | 1016.9 |
| 20260502050604 | 41 | 321 | 2.0 | 3.0 | 0.00 | 0.17 | 0.00 | 75 | 1016.9 |
| 20260502050105 | 41 | 316 | 2.0 | 3.0 | 0.00 | 0.18 | 0.00 | 75 | 1016.9 |
| 20260502045104 | 40 | 309 | 2.0 | 3.0 | 0.00 | 0.19 | 0.00 | 75 | 1016.8 |
| 20260502044104 | 40 | 299 | 2.0 | 5.0 | 0.00 | 0.20 | 0.00 | 76 | 1016.9 |
| 20260502043605 | 40 | 299 | 2.0 | 5.0 | 0.00 | 0.21 | 0.00 | 75 | 1016.8 |
| 20260502043104 | 40 | 300 | 2.0 | 5.0 | 0.00 | 0.22 | 0.00 | 75 | 1016.8 |
| 20260502042604 | 40 | 292 | 2.0 | 5.0 | 0.00 | 0.22 | 0.00 | 75 | 1016.8 |
| 20260502042104 | 40 | 298 | 2.0 | 3.0 | 0.00 | 0.22 | 0.00 | 75 | 1016.7 |
| 20260502041604 | 40 | 304 | 2.0 | 3.0 | 0.00 | 0.22 | 0.00 | 75 | 1016.7 |
| 20260502041104 | 40 | 304 | 2.0 | 3.0 | 0.00 | 0.23 | 0.00 | 75 | 1016.6 |
| 20260502040604 | 40 | 313 | 2.0 | 3.0 | 0.00 | 0.23 | 0.00 | 75 | 1016.7 |
| 20260502040105 | 40 | 313 | 1.0 | 3.0 | 0.00 | 0.23 | 0.00 | 75 | 1016.6 |
| 20260502035604 | 40 | 313 | 1.0 | 3.0 | 0.00 | 0.23 | 0.23 | 75 | 1016.7 |
| 20260502035104 | 40 | 313 | 1.0 | 3.0 | 0.00 | 0.23 | 0.23 | 75 | 1016.7 |
| 20260502034604 | 40 | 313 | 1.0 | 3.0 | 0.00 | 0.24 | 0.23 | 75 | 1016.7 |
| 20260502034104 | 40 | 313 | 2.0 | 3.0 | 0.00 | 0.24 | 0.23 | 74 | 1016.6 |
| 20260502033104 | 41 | 318 | 1.0 | 2.0 | 0.00 | 0.24 | 0.23 | 73 | 1016.6 |